Regional Weather Roundup
Issued by NWS Boston, MA

Home | Current Version | Previous Version | Text Only | Print | Product List | Glossary On
Versions: 1 2 3 4 5 6 7 8 9 10 11 12 13 14 15 16 17 18 19 20 21 22 23 24 25 26 27 28 29 30 31 32 33 34 35 36 37 38 39 40 41 42 43 44 45 46 47 48
000
ASUS41 KBOX 061910
RWRBOX

REGIONAL WEATHER ROUNDUP
NATIONAL WEATHER SERVICE TAUNTON MA
200 PM EST SAT FEB 06 2016

NOTE:  "FAIR" INDICATES FEW OR NO CLOUDS BELOW 12,000 FEET WITH NO
SIGNIFICANT WEATHER AND/OR OBSTRUCTIONS TO VISIBILITY.  THE FOLLOWING
OBSERVATION LOCATIONS DO NOT REPORT PRESENT WEATHER...PROVINCETOWN...
SMITHFIELD...BLOCK ISLAND...KEENE...AND OXFORD.

MAZALL-062000-
EASTERN MASSACHUSETTS

CITY           SKY/WX    TMP DP  RH WIND       PRES   REMARKS
BOSTON         PTSUNNY   34  25  69 SW12      30.30F WCI  25
BEVERLY        CLOUDY    34  23  64 SW13      30.28F WCI  25
LAWRENCE       SUNNY     35  26  69 SW10      30.28F WCI  27
BEDFORD        SUNNY     34  27  75 S12       30.29S WCI  25
BLUE HILL        N/A     32  26  78 S13       30.26F WCI  22
NORWOOD        MOSUNNY   35  25  66 SW12      30.30F WCI  27
MARSHFIELD     CLOUDY    34  28  80 SW9       30.33F WCI  26
PLYMOUTH       MOSUNNY   33  25  72 SW7       30.32F WCI  27
TAUNTON          N/A     34  21  59 SW6       30.31F WCI  29
NEW BEDFORD    MOSUNNY   34  23  64 SW10      30.32F WCI  26
$$

MAZALL-062000-
CAPE COD AND THE ISLANDS

CITY           SKY/WX    TMP DP  RH WIND       PRES   REMARKS
FALMOUTH       CLOUDY    34  23  64 SW12      30.33S WCI  25
HYANNIS        MOSUNNY   33  21  61 SW13      30.31F WCI  24
CHATHAM        MOSUNNY   32  26  78 SW9       30.34F WCI  24
PROVINCETOWN   MOSUNNY   34  23  64 SW13      30.32F WCI  25
NANTUCKET      MOSUNNY   35  23  61 SW12      30.35S WCI  27
MARTHAS VNYRD  CLOUDY    34  23  64 SW9       30.34F WCI  27
$$

MAZALL-062000-
CENTRAL AND WESTERN MASSACHUSETTS

CITY           SKY/WX    TMP DP  RH WIND       PRES   REMARKS
WORCESTER        N/A     33  17  51 S14       30.23F WCI  23
FITCHBURG      SUNNY     38  17  42 SW14G21   30.26F WCI  30
ORANGE         SUNNY     35  20  54 S13       30.23F WCI  26
SPRINGFIELD    SUNNY     36  22  58 S12       30.25F WCI  28
WESTFIELD      SUNNY     37  21  52 S14       30.25F WCI  28
NORTH ADAMS    MOSUNNY   38  15  39 SW8       30.19F
PITTSFIELD     CLOUDY    37  15  40 SW9G20    30.17F WCI  30
$$

RIZALL-062000-
RHODE ISLAND

CITY           SKY/WX    TMP DP  RH WIND       PRES   REMARKS
PROVIDENCE     PTSUNNY   35  22  58 SW8       30.33F WCI  29
NEWPORT        CLOUDY    34  24  67 SW10      30.32F WCI  26
BLOCK ISLAND   CLOUDY    36  25  64 SW10      30.33F WCI  28
SMITHFIELD     MOSUNNY   34  23  64 SW7       30.29S WCI  28
WESTERLY       MOSUNNY   35  22  58 SW8G18    30.34F WCI  29
$$

CTZALL-062000-
CONNECTICUT

CITY           SKY/WX    TMP DP  RH WIND       PRES   REMARKS
BRADLEY INTL   PTSUNNY   37  19  48 S15G23    30.27F WCI  28
HARTFORD       SUNNY     38  21  50 S10G17    30.30F WCI  31
BRIDGEPORT     CLOUDY    37  23  56 SW8       30.33F WCI  31
DANBURY        SUNNY     37  15  40 S9        30.30F WCI  30
GROTON         MOSUNNY   35  22  58 SW13      30.33F WCI  26
NEW HAVEN      MOSUNNY   36  23  59 SW8       30.33F WCI  30
CHESTER        FAIR      34  23  64 SW7G20    30.31F WCI  28
MERIDEN        MOSUNNY   37  22  54 S9        30.31F WCI  30
WILLIMANTIC    MOSUNNY   36  21  54 S10       30.31F WCI  28
OXFORD         MOSUNNY   37  16  41 SW8       30.29F WCI  31
$$

MEZ002-015-021-024-NHZ003-005-008-011-012-014-VTZ005-008-062000-
NORTHERN NEW ENGLAND

CITY           SKY/WX    TMP DP  RH WIND       PRES   REMARKS
PORTLAND ME    MOSUNNY   35  25  66 SW12      30.23F WCI  27
BANGOR ME      CLOUDY    32  19  58 S10       30.18F WCI  24
CONCORD NH     MOSUNNY   39  16  39 SW10G22   30.21F
MANCHESTER NH  PTSUNNY   37  25  61 S12       30.22F WCI  29
NASHUA NH      SUNNY     37  25  60 S5        30.25F
PORTSMOUTH NH  PTSUNNY   35  26  70 SW8       30.24F WCI  28
JAFFREY NH     SUNNY     34  18  52 SW10G17   30.19F WCI  26
KEENE NH       MOSUNNY   37  18  44 S14       30.21F WCI  29
BURLINGTON VT  CLOUDY    37  20  50 S14G23    30.12F WCI  28
MT. WASHINGTON FOG        9   9 100 W40         N/A  VSB 1/16WCI -17
$$

NYZ052-076-062000-
EASTERN NEW YORK

CITY           SKY/WX    TMP DP  RH WIND       PRES   REMARKS
ALBANY         CLOUDY    40  17  39 S10G21    30.20F
NEW YORK CITY  PTSUNNY   40  21  46 SW9       30.33F
$$

ANZALL-062000-
MARINE OBSERVATIONS

STATION/POSITION TIME  TEMP    WIND        PRES    VSBY  WAVE
                       AIR SEA DIR/SP/G                  HT/PER
                 (UTC) (F)     (DEG/KT/KT) (MB)    (MI)  (FT/S)
BOSTON BUOY      1850   35 42  220/ 14/ 17 1026.1F         3/ 8
BUZZARDS BAY     1900          240/ 14/ 15 1027.8F
NANTUCKET SOUND  1850   36 42  240/ 14/ 17 1027.0F         1/ 9
MASS BAY-STELLWA 1804   34 43  220/ 16/ 17   N/A    1 7/8  3/ 8
ISLE OF SHOALS   1900   35     220/ 16/ 20 1024.0F
S OF BLOCK IS    NOT AVBL
$$

......................KEY.........................
  SKY/WX - SKY CONDITION/PRESENT WEATHER
  TMP    - TEMPERATURE IN FAHRENHEIT
  DWPT   - DEWPOINT IN FAHRENHEIT
  RH     - RELATIVE HUMIDITY IN PERCENT
  WIND   - DIRECTION AND SPEED IN MPH
  PRES   - MEAN SEA LEVEL PRESSURE IN INCHES OF HG
  WCI    - WIND CHILL INDEX
  VSB    - VISIBILITY IN MILES
  HX     - HEAT INDEX
  TC     - TEMPERATURE IN CELSIUS
  VRB    - VARIABLE WIND DIRECTION
  N/A    - NOT AVAILABLE



USA.gov is the U.S. government's official web portal to all federal, state and local government web resources and services.